Time,TemperatureF,DewpointF,PressureIn,WindDirection,WindDirectionDegrees,WindSpeedMPH,WindSpeedGustMPH,Humidity,HourlyPrecipIn,Conditions,Clouds,dailyrainin,SolarRadiationWatts/m^2,SoftwareType,DateUTC
2013-02-09 00:08:00,18.5,17.0,29.80,ENE,65,11.0,19.0,92,0.00,,,0.00,0,weatherlink.com 1.10,2013-02-09 05:08:00,
2013-02-09 00:21:00,18.7,17.0,29.79,NE,34,4.0,14.0,92,0.00,,,0.00,0,weatherlink.com 1.10,2013-02-09 05:21:00,
2013-02-09 00:39:00,19.0,17.0,29.81,NE,34,3.0,8.0,92,0.00,,,0.00,0,weatherlink.com 1.10,2013-02-09 05:39:00,
2013-02-09 00:51:00,19.2,17.0,29.80,NNE,22,4.0,7.0,92,0.00,,,0.00,0,weatherlink.com 1.10,2013-02-09 05:51:00,
2013-02-09 01:06:00,19.4,18.0,29.78,NE,52,8.0,11.0,92,0.02,,,0.02,0,weatherlink.com 1.10,2013-02-09 06:06:00,
2013-02-09 01:22:00,19.8,18.0,29.77,NNE,33,7.0,11.0,92,0.05,,,0.05,0,weatherlink.com 1.10,2013-02-09 06:22:00,
2013-02-09 01:37:00,20.4,19.0,29.77,NE,52,7.0,14.0,92,0.08,,,0.08,0,weatherlink.com 1.10,2013-02-09 06:37:00,
2013-02-09 01:52:00,20.7,19.0,29.78,NE,48,10.0,13.0,93,0.11,,,0.11,0,weatherlink.com 1.10,2013-02-09 06:52:00,
2013-02-09 02:07:00,20.7,19.0,29.78,NE,42,12.0,18.0,93,0.11,,,0.13,0,weatherlink.com 1.10,2013-02-09 07:07:00,
2013-02-09 02:22:00,20.5,19.0,29.78,NNE,31,7.0,13.0,93,0.10,,,0.15,0,weatherlink.com 1.10,2013-02-09 07:22:00,
2013-02-09 02:37:00,20.5,19.0,29.78,NE,52,7.0,18.0,93,0.09,,,0.17,0,weatherlink.com 1.10,2013-02-09 07:37:00,
2013-02-09 02:52:00,20.2,18.0,29.78,NNE,22,7.0,20.0,92,0.08,,,0.19,0,weatherlink.com 1.10,2013-02-09 07:52:00,
2013-02-09 03:07:00,20.0,18.0,29.79,NE,50,11.0,18.0,92,0.06,,,0.19,0,weatherlink.com 1.10,2013-02-09 08:07:00,
2013-02-09 03:22:00,19.9,18.0,29.78,NE,41,10.0,15.0,92,0.05,,,0.20,0,weatherlink.com 1.10,2013-02-09 08:22:00,
2013-02-09 03:37:00,19.7,18.0,29.78,NE,48,8.0,18.0,92,0.04,,,0.21,0,weatherlink.com 1.10,2013-02-09 08:37:00,
2013-02-09 03:52:00,19.6,18.0,29.78,NE,44,10.0,19.0,92,0.02,,,0.21,0,weatherlink.com 1.10,2013-02-09 08:52:00,
2013-02-09 04:07:00,19.5,18.0,29.78,NE,49,10.0,18.0,92,0.02,,,0.21,0,weatherlink.com 1.10,2013-02-09 09:07:00,
2013-02-09 04:22:00,19.4,18.0,29.79,NE,36,5.0,18.0,92,0.01,,,0.21,0,weatherlink.com 1.10,2013-02-09 09:22:00,
2013-02-09 04:37:00,19.3,17.0,29.79,NNE,29,10.0,17.0,92,0.00,,,0.21,0,weatherlink.com 1.10,2013-02-09 09:37:00,
2013-02-09 04:52:00,19.2,17.0,29.79,NNE,30,9.0,19.0,92,0.01,,,0.22,0,weatherlink.com 1.10,2013-02-09 09:52:00,
2013-02-09 05:07:00,19.1,17.0,29.79,NE,42,6.0,19.0,92,0.01,,,0.22,0,weatherlink.com 1.10,2013-02-09 10:07:00,
2013-02-09 05:22:00,19.0,17.0,29.79,ENE,61,9.0,13.0,92,0.02,,,0.23,0,weatherlink.com 1.10,2013-02-09 10:22:00,
2013-02-09 05:37:00,18.9,17.0,29.80,NE,34,10.0,18.0,92,0.02,,,0.23,0,weatherlink.com 1.10,2013-02-09 10:37:00,
2013-02-09 05:52:00,18.8,17.0,29.80,NE,41,9.0,18.0,92,0.01,,,0.23,0,weatherlink.com 1.10,2013-02-09 10:52:00,
2013-02-09 06:07:00,18.6,17.0,29.80,NE,44,8.0,13.0,92,0.01,,,0.23,0,weatherlink.com 1.10,2013-02-09 11:07:00,
2013-02-09 06:23:00,18.5,17.0,29.80,NE,48,8.0,14.0,92,0.00,,,0.23,0,weatherlink.com 1.10,2013-02-09 11:23:00,
2013-02-09 06:37:00,18.5,17.0,29.81,North,9,2.0,11.0,92,0.01,,,0.24,0,weatherlink.com 1.10,2013-02-09 11:37:00,
2013-02-09 06:52:00,18.5,17.0,29.82,North,5,5.0,19.0,92,0.01,,,0.24,0,weatherlink.com 1.10,2013-02-09 11:52:00,
2013-02-09 07:07:00,18.2,16.0,29.82,NNE,17,12.0,14.0,92,0.01,,,0.24,5,weatherlink.com 1.10,2013-02-09 12:07:00,
2013-02-09 07:22:00,17.8,16.0,29.84,NNW,334,2.0,14.0,91,0.01,,,0.24,14,weatherlink.com 1.10,2013-02-09 12:22:00,
2013-02-09 07:37:00,17.7,16.0,29.86,North,360,9.0,15.0,91,0.00,,,0.24,25,weatherlink.com 1.10,2013-02-09 12:37:00,
2013-02-09 07:52:00,17.3,15.0,29.87,NNE,26,12.0,24.0,91,0.01,,,0.25,37,weatherlink.com 1.10,2013-02-09 12:52:00,
2013-02-09 08:08:00,16.7,15.0,29.88,NNE,24,5.0,23.0,91,0.01,,,0.25,53,weatherlink.com 1.10,2013-02-09 13:08:00,
2013-02-09 08:22:00,16.4,14.0,29.89,NNE,19,13.0,20.0,91,0.01,,,0.25,77,weatherlink.com 1.10,2013-02-09 13:22:00,
2013-02-09 08:37:00,16.0,14.0,29.89,North,9,9.0,19.0,90,0.01,,,0.25,83,weatherlink.com 1.10,2013-02-09 13:37:00,
2013-02-09 08:52:00,15.7,13.0,29.90,NNE,14,9.0,17.0,90,0.00,,,0.25,98,weatherlink.com 1.10,2013-02-09 13:52:00,
2013-02-09 09:07:00,15.5,13.0,29.90,NE,40,5.0,19.0,90,0.00,,,0.25,120,weatherlink.com 1.10,2013-02-09 14:07:00,
2013-02-09 09:22:00,15.5,13.0,29.91,NE,34,8.0,18.0,90,0.00,,,0.25,156,weatherlink.com 1.10,2013-02-09 14:22:00,
2013-02-09 09:38:00,15.8,13.0,29.91,NNE,18,7.0,24.0,90,0.00,,,0.25,149,weatherlink.com 1.10,2013-02-09 14:38:00,
2013-02-09 09:53:00,16.2,14.0,29.92,NNE,22,5.0,16.0,90,0.00,,,0.25,176,weatherlink.com 1.10,2013-02-09 14:53:00,
2013-02-09 10:08:00,16.5,14.0,29.92,NE,51,10.0,17.0,90,0.00,,,0.25,220,weatherlink.com 1.10,2013-02-09 15:08:00,
2013-02-09 10:23:00,16.8,14.0,29.93,North,355,11.0,26.0,90,0.00,,,0.25,269,weatherlink.com 1.10,2013-02-09 15:23:00,
2013-02-09 10:38:00,17.0,14.0,29.93,North,351,11.0,28.0,89,0.00,,,0.25,237,weatherlink.com 1.10,2013-02-09 15:38:00,
2013-02-09 10:53:00,17.2,15.0,29.94,NE,42,19.0,27.0,89,0.00,,,0.25,336,weatherlink.com 1.10,2013-02-09 15:53:00,
2013-02-09 11:08:00,17.7,15.0,29.94,NE,34,10.0,27.0,90,0.00,,,0.25,390,weatherlink.com 1.10,2013-02-09 16:08:00,
2013-02-09 11:23:00,18.7,16.0,29.93,ENE,71,15.0,23.0,90,0.00,,,0.25,420,weatherlink.com 1.10,2013-02-09 16:23:00,
2013-02-09 11:38:00,19.7,17.0,29.93,ENE,74,11.0,17.0,90,0.00,,,0.25,510,weatherlink.com 1.10,2013-02-09 16:38:00,
2013-02-09 11:53:00,20.4,18.0,29.93,North,355,16.0,19.0,89,0.00,,,0.25,471,weatherlink.com 1.10,2013-02-09 16:53:00,
2013-02-09 12:08:00,19.3,16.0,29.95,North,9,8.0,31.0,88,0.00,,,0.25,294,weatherlink.com 1.10,2013-02-09 17:08:00,
2013-02-09 12:23:00,18.5,16.0,29.95,North,11,7.0,22.0,88,0.00,,,0.25,279,weatherlink.com 1.10,2013-02-09 17:23:00,
2013-02-09 12:38:00,18.6,16.0,29.96,NNW,347,6.0,21.0,89,0.01,,,0.26,292,weatherlink.com 1.10,2013-02-09 17:38:00,
2013-02-09 12:53:00,18.8,16.0,29.97,North,360,4.0,15.0,88,0.01,,,0.26,297,weatherlink.com 1.10,2013-02-09 17:53:00,
2013-02-09 13:08:00,18.8,16.0,29.97,NNE,13,3.0,15.0,88,0.01,,,0.26,346,weatherlink.com 1.10,2013-02-09 18:08:00,
2013-02-09 13:23:00,19.7,17.0,29.98,North,355,15.0,18.0,89,0.01,,,0.26,401,weatherlink.com 1.10,2013-02-09 18:23:00,
2013-02-09 13:39:00,19.8,17.0,29.98,NE,44,6.0,12.0,88,0.01,,,0.27,350,weatherlink.com 1.10,2013-02-09 18:39:00,
2013-02-09 13:53:00,20.8,18.0,29.98,North,11,8.0,18.0,87,0.01,,,0.27,520,weatherlink.com 1.10,2013-02-09 18:53:00,
2013-02-09 14:08:00,20.6,17.0,29.99,NNE,25,13.0,26.0,87,0.01,,,0.27,466,weatherlink.com 1.10,2013-02-09 19:08:00,
2013-02-09 14:24:00,20.8,18.0,30.00,NNE,29,14.0,18.0,87,0.01,,,0.27,371,weatherlink.com 1.10,2013-02-09 19:24:00,
2013-02-09 14:38:00,20.2,17.0,30.01,North,360,11.0,22.0,86,0.00,,,0.27,278,weatherlink.com 1.10,2013-02-09 19:38:00,
2013-02-09 14:53:00,19.2,16.0,30.02,NNE,22,13.0,23.0,86,0.00,,,0.27,181,weatherlink.com 1.10,2013-02-09 19:53:00,
2013-02-09 15:08:00,19.0,15.0,30.03,WNW,303,3.0,23.0,85,0.00,,,0.27,366,weatherlink.com 1.10,2013-02-09 20:08:00,
2013-02-09 15:23:00,19.6,16.0,30.04,NE,38,20.0,22.0,85,0.00,,,0.27,322,weatherlink.com 1.10,2013-02-09 20:23:00,
2013-02-09 15:38:00,19.8,16.0,30.04,NNE,28,18.0,20.0,85,0.00,,,0.27,255,weatherlink.com 1.10,2013-02-09 20:38:00,
2013-02-09 15:53:00,19.9,16.0,30.05,NNE,17,5.0,18.0,84,0.00,,,0.27,178,weatherlink.com 1.10,2013-02-09 20:53:00,
2013-02-09 16:09:00,19.3,15.0,30.06,North,5,5.0,15.0,84,0.00,,,0.27,111,weatherlink.com 1.10,2013-02-09 21:09:00,
2013-02-09 16:23:00,18.9,15.0,30.07,North,5,8.0,10.0,84,0.00,,,0.27,60,weatherlink.com 1.10,2013-02-09 21:23:00,
2013-02-09 16:39:00,18.0,16.0,30.08,North,355,9.0,12.0,92,0.00,,,0.27,21,weatherlink.com 1.10,2013-02-09 21:39:00,
2013-02-09 17:09:00,16.8,13.0,30.09,NNE,33,9.0,19.0,83,0.00,,,0.27,9,weatherlink.com 1.10,2013-02-09 22:09:00,
2013-02-09 17:24:00,16.5,12.0,30.11,NNE,16,12.0,18.0,83,0.00,,,0.27,0,weatherlink.com 1.10,2013-02-09 22:24:00,
2013-02-09 17:39:00,16.0,12.0,30.12,NE,34,7.0,15.0,83,0.00,,,0.27,0,weatherlink.com 1.10,2013-02-09 22:39:00,
2013-02-09 17:54:00,15.8,11.0,30.13,NNE,29,8.0,22.0,82,0.00,,,0.27,0,weatherlink.com 1.10,2013-02-09 22:54:00,
2013-02-09 18:09:00,15.5,11.0,30.15,North,11,14.0,25.0,82,0.00,,,0.27,0,weatherlink.com 1.10,2013-02-09 23:09:00,
2013-02-09 18:24:00,15.2,10.0,30.16,NE,45,6.0,19.0,81,0.00,,,0.27,0,weatherlink.com 1.10,2013-02-09 23:24:00,
2013-02-09 18:39:00,15.0,10.0,30.17,NNE,33,7.0,19.0,80,0.00,,,0.27,0,weatherlink.com 1.10,2013-02-09 23:39:00,
2013-02-09 18:54:00,14.6,10.0,30.18,NNE,13,7.0,16.0,80,0.00,,,0.27,0,weatherlink.com 1.10,2013-02-09 23:54:00,
2013-02-09 19:09:00,14.3,9.0,30.19,NNE,24,12.0,17.0,80,0.00,,,0.27,0,weatherlink.com 1.10,2013-02-10 00:09:00,
2013-02-09 19:24:00,13.7,9.0,30.19,NE,37,9.0,11.0,81,0.00,,,0.27,0,weatherlink.com 1.10,2013-02-10 00:24:00,
2013-02-09 19:39:00,13.3,9.0,30.20,NE,37,6.0,11.0,82,0.00,,,0.27,0,weatherlink.com 1.10,2013-02-10 00:39:00,
2013-02-09 19:54:00,13.5,9.0,30.21,ENE,73,8.0,11.0,82,0.00,,,0.27,0,weatherlink.com 1.10,2013-02-10 00:54:00,
2013-02-09 20:09:00,13.1,9.0,30.21,NNE,13,4.0,5.0,82,0.00,,,0.27,0,weatherlink.com 1.10,2013-02-10 01:09:00,
2013-02-09 20:24:00,13.3,9.0,30.22,NNE,24,3.0,11.0,82,0.00,,,0.27,0,weatherlink.com 1.10,2013-02-10 01:24:00,
2013-02-09 20:39:00,13.0,9.0,30.23,North,5,0.0,6.0,83,0.00,,,0.27,0,weatherlink.com 1.10,2013-02-10 01:39:00,
2013-02-09 20:56:00,12.7,9.0,30.23,North,5,0.0,2.0,83,0.00,,,0.27,0,weatherlink.com 1.10,2013-02-10 01:56:00,
2013-02-09 21:09:00,12.2,8.0,30.23,North,5,0.0,3.0,84,0.00,,,0.27,0,weatherlink.com 1.10,2013-02-10 02:09:00,
2013-02-09 21:24:00,11.5,7.0,30.23,North,5,0.0,3.0,83,0.00,,,0.27,0,weatherlink.com 1.10,2013-02-10 02:24:00,
2013-02-09 21:39:00,11.2,7.0,30.24,North,5,0.0,4.0,83,0.00,,,0.27,0,weatherlink.com 1.10,2013-02-10 02:39:00,
2013-02-09 21:54:00,11.2,7.0,30.25,NE,38,0.0,6.0,84,0.00,,,0.27,0,weatherlink.com 1.10,2013-02-10 02:54:00,
2013-02-09 22:10:00,11.3,7.0,30.25,North,360,6.0,6.0,83,0.00,,,0.27,0,weatherlink.com 1.10,2013-02-10 03:10:00,
2013-02-09 22:24:00,11.8,8.0,30.25,ENE,59,2.0,8.0,83,0.00,,,0.27,0,weatherlink.com 1.10,2013-02-10 03:24:00,
2013-02-09 22:40:00,12.2,8.0,30.25,NNE,15,5.0,11.0,83,0.00,,,0.27,0,weatherlink.com 1.10,2013-02-10 03:40:00,
2013-02-09 22:54:00,12.4,8.0,30.26,NE,36,2.0,7.0,83,0.00,,,0.27,0,weatherlink.com 1.10,2013-02-10 03:54:00,
2013-02-09 23:09:00,11.6,7.0,30.26,NE,53,0.0,3.0,82,0.00,,,0.27,0,weatherlink.com 1.10,2013-02-10 04:09:00,
2013-02-09 23:24:00,10.9,6.0,30.27,NE,53,0.0,2.0,82,0.00,,,0.27,0,weatherlink.com 1.10,2013-02-10 04:24:00,
2013-02-09 23:39:00,10.7,7.0,30.27,NE,53,0.0,0.0,83,0.00,,,0.27,0,weatherlink.com 1.10,2013-02-10 04:39:00,
2013-02-09 23:54:00,11.0,7.0,30.27,NNE,18,1.0,7.0,83,0.00,,,0.27,0,weatherlink.com 1.10,2013-02-10 04:54:00,